Location: Newark
(59.8814°N, 10.8258°E)
Time: 00:43:53
(UTC+00:00)

Envisat - Pass Details

Date: 24 January 2020
Orbit: 764 x 766 km, 98.1° (Epoch: 27 February)

Event Time Altitude Azimuth Distance (km) Brightness Sun altitude
Rises 06:43:32 0° 16° (NNE) 3,250 6.2 -7.7°
Reaches altitude 10° 06:45:51 10° 15° (NNE) 2,319 5.4 -7.4°
Maximum altitude 06:50:57 75° 292° (WNW) 800 3.0 -6.9°
Drops below altitude 10° 06:56:01 10° 207° (SSW) 2,303 5.5 -6.3°
Sets 06:58:19 0° 206° (SSW) 3,225 6.3 -6.1°
